TimeCDT,TemperatureF,Dew PointF,Humidity,Sea Level PressureIn,VisibilityMPH,Wind Direction,Wind SpeedMPH,Gust SpeedMPH,PrecipitationIn,Events,Conditions,WindDirDegrees,DateUTC
12:11 AM,29.3,28.6,97,29.76,10.0,Calm,Calm,-,N/A,,Scattered Clouds,0,2013-10-20 05:11:00
12:31 AM,30.2,29.1,96,29.75,10.0,Calm,Calm,-,N/A,,Mostly Cloudy,0,2013-10-20 05:31:00
12:50 AM,29.8,28.6,95,29.75,10.0,SSE,3.5,-,N/A,,Mostly Cloudy,150,2013-10-20 05:50:00
1:11 AM,30.0,28.9,96,29.74,10.0,Calm,Calm,-,N/A,,Overcast,0,2013-10-20 06:11:00
1:31 AM,30.4,29.3,96,29.74,10.0,Calm,Calm,-,N/A,,Mostly Cloudy,0,2013-10-20 06:31:00
1:50 AM,30.2,28.9,95,29.73,10.0,SE,3.5,-,N/A,,Mostly Cloudy,130,2013-10-20 06:50:00
2:11 AM,31.1,29.5,94,29.73,10.0,Calm,Calm,-,N/A,,Overcast,0,2013-10-20 07:11:00
2:31 AM,30.9,29.7,95,29.73,10.0,SSE,3.5,-,N/A,,Overcast,150,2013-10-20 07:31:00
2:50 AM,31.1,30.0,96,29.73,10.0,SE,3.5,-,N/A,,Overcast,140,2013-10-20 07:50:00
3:11 AM,31.8,30.6,95,29.72,10.0,SSE,3.5,-,N/A,,Overcast,160,2013-10-20 08:11:00
3:31 AM,32.0,30.9,96,29.72,10.0,SSE,4.6,-,N/A,,Overcast,160,2013-10-20 08:31:00
3:50 AM,32.5,31.6,96,29.72,10.0,SSE,5.8,-,N/A,,Overcast,150,2013-10-20 08:50:00
4:11 AM,33.1,32.0,96,29.71,10.0,SSE,4.6,-,N/A,,Overcast,150,2013-10-20 09:11:00
4:31 AM,33.8,32.0,93,29.70,10.0,South,5.8,-,N/A,,Overcast,170,2013-10-20 09:31:00
4:50 AM,33.4,32.0,94,29.70,7.0,SSE,5.8,-,N/A,Snow,Light Snow,160,2013-10-20 09:50:00
5:11 AM,33.1,32.0,96,29.68,10.0,SE,5.8,-,N/A,Rain,Light Rain,140,2013-10-20 10:11:00
5:31 AM,33.1,31.8,95,29.67,7.0,ESE,5.8,-,N/A,Rain,Rain,110,2013-10-20 10:31:00
5:50 AM,33.3,32.0,95,29.68,7.0,SSE,4.6,-,N/A,Rain,Rain,160,2013-10-20 10:50:00
6:11 AM,32.9,32.0,96,29.67,7.0,SE,4.6,-,N/A,Rain,Light Rain,140,2013-10-20 11:11:00
6:31 AM,32.9,32.0,96,29.67,7.0,SE,4.6,-,N/A,Rain,Light Rain,130,2013-10-20 11:31:00
6:50 AM,32.9,32.0,96,29.66,5.0,SE,4.6,-,0.01,Rain,Light Rain,130,2013-10-20 11:50:00
7:11 AM,32.5,32.0,98,29.66,5.0,SE,5.8,-,N/A,Rain,Light Rain,140,2013-10-20 12:11:00
7:31 AM,32.5,32.0,98,29.66,7.0,SE,5.8,-,N/A,Rain,Rain,130,2013-10-20 12:31:00
7:50 AM,32.9,32.0,96,29.65,10.0,SE,6.9,-,N/A,Rain,Light Rain,130,2013-10-20 12:50:00
8:11 AM,32.9,32.0,96,29.65,10.0,ESE,5.8,-,N/A,,Light Drizzle,120,2013-10-20 13:11:00
8:30 AM,33.1,32.0,96,29.65,10.0,SE,5.8,-,N/A,Rain,Light Rain,130,2013-10-20 13:30:00
8:51 AM,32.9,32.0,96,29.64,5.0,ESE,5.8,-,N/A,Snow,Light Snow,120,2013-10-20 13:51:00
9:11 AM,32.0,31.8,99,29.64,1.0,ESE,6.9,-,0.01,Snow,Light Snow,110,2013-10-20 14:11:00
9:30 AM,32.0,31.8,99,29.64,0.8,ESE,6.9,-,0.03,Snow,Light Snow,120,2013-10-20 14:30:00
9:51 AM,32.0,31.8,99,29.63,1.0,ESE,6.9,-,0.05,Snow,Light Snow,110,2013-10-20 14:51:00
10:10 AM,32.0,31.8,99,29.63,1.8,ESE,6.9,-,0.01,Snow,Light Snow,110,2013-10-20 15:10:00
10:30 AM,32.0,32.0,100,29.63,2.5,ESE,6.9,-,0.01,Snow,Light Snow,110,2013-10-20 15:30:00
10:51 AM,32.0,32.0,100,29.63,7.0,East,6.9,-,0.01,Snow,Light Snow,90,2013-10-20 15:51:00
11:10 AM,32.2,32.0,99,29.63,2.0,East,5.8,-,N/A,Snow,Light Snow,100,2013-10-20 16:10:00
11:30 AM,32.4,32.0,99,29.63,4.0,East,4.6,-,N/A,Snow,Light Snow,100,2013-10-20 16:30:00
11:51 AM,32.9,32.2,97,29.63,7.0,East,6.9,-,0.01,Snow,Light Snow,80,2013-10-20 16:51:00
12:10 PM,32.9,32.0,96,29.63,10.0,East,6.9,-,N/A,,Overcast,80,2013-10-20 17:10:00
12:30 PM,32.9,32.0,96,29.64,10.0,ENE,4.6,-,N/A,Snow,Light Snow,70,2013-10-20 17:30:00
12:51 PM,33.4,32.4,96,29.64,10.0,NE,4.6,-,N/A,,Overcast,50,2013-10-20 17:51:00
1:10 PM,33.8,32.7,96,29.64,10.0,NNE,4.6,-,N/A,Rain,Light Rain,20,2013-10-20 18:10:00
1:30 PM,34.2,32.5,94,29.65,10.0,NNE,5.8,-,N/A,,Overcast,20,2013-10-20 18:30:00
1:51 PM,34.0,32.5,94,29.66,10.0,NNE,9.2,-,N/A,,Overcast,20,2013-10-20 18:51:00
2:10 PM,33.8,32.4,94,29.66,7.0,North,9.2,-,N/A,Rain,Light Rain,10,2013-10-20 19:10:00
2:30 PM,34.2,32.5,94,29.67,10.0,North,9.2,-,N/A,Rain,Light Rain,10,2013-10-20 19:30:00
2:51 PM,34.2,32.5,94,29.68,10.0,North,9.2,-,N/A,,Overcast,360,2013-10-20 19:51:00
3:10 PM,34.3,32.7,94,29.69,10.0,North,8.1,-,N/A,Rain,Light Rain,360,2013-10-20 20:10:00
3:31 PM,34.7,32.7,92,29.71,10.0,North,6.9,-,N/A,Rain,Light Rain,360,2013-10-20 20:31:00
3:51 PM,34.7,32.9,93,29.72,10.0,North,9.2,-,N/A,Rain,Light Rain,10,2013-10-20 20:51:00
4:10 PM,35.1,32.5,91,29.73,10.0,North,10.4,19.6,N/A,Rain,Light Rain,360,2013-10-20 21:10:00
4:31 PM,35.4,32.4,89,29.74,10.0,North,12.7,19.6,N/A,,Overcast,350,2013-10-20 21:31:00
4:51 PM,35.6,32.4,88,29.75,10.0,NNW,10.4,-,N/A,,Overcast,340,2013-10-20 21:51:00
5:10 PM,36.1,32.5,87,29.76,10.0,NNW,15.0,18.4,N/A,,Overcast,330,2013-10-20 22:10:00
5:31 PM,36.1,32.7,87,29.77,10.0,NNW,11.5,17.3,N/A,,Overcast,340,2013-10-20 22:31:00
5:51 PM,36.3,32.0,84,29.78,10.0,NNW,10.4,18.4,N/A,,Overcast,330,2013-10-20 22:51:00
6:10 PM,35.6,32.0,87,29.79,10.0,NW,6.9,-,N/A,,Mostly Cloudy,320,2013-10-20 23:10:00
6:31 PM,35.4,32.4,89,29.80,10.0,NW,8.1,-,N/A,,Mostly Cloudy,310,2013-10-20 23:31:00
6:51 PM,35.1,32.0,89,29.81,10.0,NW,8.1,-,N/A,,Scattered Clouds,310,2013-10-20 23:51:00
7:10 PM,34.9,32.0,89,29.82,10.0,NW,9.2,-,N/A,,Scattered Clouds,320,2013-10-21 00:10:00
7:31 PM,35.8,32.7,89,29.84,10.0,NW,13.8,18.4,N/A,,Mostly Cloudy,320,2013-10-21 00:31:00
7:51 PM,36.0,32.2,86,29.84,10.0,NW,21.9,26.5,N/A,,Overcast,320,2013-10-21 00:51:00
8:10 PM,35.1,31.1,85,29.85,10.0,NW,18.4,25.3,N/A,,Overcast,320,2013-10-21 01:10:00
8:31 PM,35.1,31.3,86,29.86,10.0,NW,12.7,23.0,N/A,,Overcast,320,2013-10-21 01:31:00
8:51 PM,34.7,29.3,81,29.87,10.0,NW,19.6,26.5,N/A,,Overcast,320,2013-10-21 01:51:00
9:10 PM,34.2,27.5,77,29.88,10.0,NW,16.1,23.0,N/A,,Overcast,320,2013-10-21 02:10:00
9:31 PM,33.6,25.3,72,29.89,10.0,NW,17.3,26.5,N/A,,Overcast,320,2013-10-21 02:31:00
9:51 PM,32.9,24.1,70,29.90,10.0,NW,17.3,21.9,N/A,,Overcast,320,2013-10-21 02:51:00
10:10 PM,32.2,22.8,68,29.90,10.0,NW,17.3,26.5,N/A,,Overcast,320,2013-10-21 03:10:00
10:31 PM,32.0,23.0,69,29.90,10.0,NW,13.8,-,N/A,,Overcast,320,2013-10-21 03:31:00
10:50 PM,32.0,23.5,71,29.90,10.0,NW,13.8,18.4,N/A,,Overcast,320,2013-10-21 03:50:00
11:11 PM,32.4,23.4,69,29.90,10.0,NW,15.0,19.6,N/A,,Overcast,310,2013-10-21 04:11:00
11:31 PM,32.5,22.3,66,29.91,10.0,NW,17.3,-,N/A,,Overcast,310,2013-10-21 04:31:00
11:50 PM,32.5,21.0,63,29.91,10.0,NW,12.7,-,N/A,,Overcast,320,2013-10-21 04:50:00